This is the latest recevied weather packets stored in our database for station/object W3TMB. If no packets are shown the sender has not sent any weather packets the latest 10 day(s).
| Time | Temp. | Humidity | Pressure | Rain* | Wind** | Luminosity | Snow |
|---|---|---|---|---|---|---|---|
| 1778004579 | 27.78° C | 41% | 1003.9 hPa | 0 mm | - | 832 W/m² | - |
| 1778004275 | 27.22° C | 39% | 1003.9 hPa | 0 mm | - | 853 W/m² | - |
| 1778003972 | 27.22° C | 40% | 1003.7 hPa | 0 mm | - | 261 W/m² | - |
| 1778003668 | 27.22° C | 42% | 1004 hPa | 0 mm | - | 412 W/m² | - |
| 1778003365 | 26.67° C | 43% | 1004 hPa | 0 mm | - | 432 W/m² | - |
| 1778003062 | 26.67° C | 42% | 1004.1 hPa | 0 mm | - | 374 W/m² | - |
| 1778002758 | 27.22° C | 42% | 1003.9 hPa | 0 mm | - | 747 W/m² | - |
| 1778002454 | 27.22° C | 42% | 1003.9 hPa | 0 mm | - | 876 W/m² | - |
| 1778002152 | 26.67° C | 44% | 1004.2 hPa | 0 mm | - | 732 W/m² | - |
| 1778001850 | 26.11° C | 44% | 1004.1 hPa | 0 mm | - | 377 W/m² | - |
| 1778001549 | 26.67° C | 44% | 1004.3 hPa | 0 mm | - | 592 W/m² | - |
| 1778001246 | 26.11° C | 45% | 1004.4 hPa | 0 mm | - | 430 W/m² | - |
| 1778000943 | 26.11° C | 45% | 1004.4 hPa | 0 mm | - | 383 W/m² | - |
| 1778000640 | 26.11° C | 45% | 1004.3 hPa | 0 mm | - | 560 W/m² | - |
| 1778000335 | 25.56° C | 48% | 1004.5 hPa | 0 mm | - | 471 W/m² | - |
| 1778000031 | 26.11° C | 46% | 1004.2 hPa | 0 mm | - | 368 W/m² | - |
| 1777999726 | 26.11° C | 45% | 1004.5 hPa | 0 mm | - | 481 W/m² | - |
| 1777999423 | 26.11° C | 47% | 1004.5 hPa | 0 mm | - | 563 W/m² | - |
| 1777999122 | 25° C | 49% | 1004.5 hPa | 0 mm | - | 524 W/m² | - |
| 1777998820 | 25° C | 48% | 1004.6 hPa | 0 mm | - | 383 W/m² | - |
| 1777998519 | 25° C | 48% | 1004.7 hPa | 0 mm | - | 347 W/m² | - |
| 1777998214 | 25° C | 47% | 1004.6 hPa | 0 mm | - | 345 W/m² | - |
| 1777997911 | 25° C | 48% | 1004.5 hPa | 0 mm | - | 361 W/m² | - |
| 1777997608 | 25° C | 49% | 1004.7 hPa | 0 mm | - | 195 W/m² | - |
| 1777997306 | 25° C | 47% | 1004.7 hPa | 0 mm | - | 250 W/m² | - |
* Rain latest hour (hover to see other rain measurements)
** Current wind speed in m/s (hover to see current wind gust speed)